Flag for Germany Weather past 2 weeks in Hameln, Lower Saxony, Germany

Now
57 °F

Partly sunny.


Feels Like: 57 °F
Forecast: 50 / 63 °F
Wind: 3 mph from North

Location: Bueckeburg

Current Time: May 27, 2015 at 6:48:38 PM

Latest Report: May 27, 2015 at 6:20 PM


Visibility: N/A

Pressure: 30.15 "Hg

Humidity: 55%

Dew point: 41 °F

Location of HamelnLocation

Historic Weather in Hameln — Graph

°F

Hameln temperature yesterday

Maximum temperature yesterday: 55 °F (at 12:20 PM)
Minimum temperature yesterday: 48 °F (at 2:20 AM)
Average temperature yesterday: 52 °F

Past Weeks' High & Low Weather Summary

 TemperatureHumidityPressure
High68 °F (May 18, 6:20 PM)100% (May 24, 6:20 AM)30.33 "Hg (May 24, 6:20 AM)
Low37 °F (May 16, 5:20 AM)39% (May 21, 5:20 PM)29.59 "Hg (May 18, 8:20 PM)
Average53 °F68%30.05 "Hg
* Reported May 12 5:20 PM — May 27 5:20 PM, Hameln, Weather by CustomWeather, © 2015

Note: Actual official high and low records may vary slightly from our data, if they occured in-between our weather recording intervals... More about our weather records

Advertising

Hameln weather history for previous 24 hours

 ConditionsComfort  
Time TempWeatherWind HumidityBarometerVisibility
5:20 PM
Wed, May 27
59 °FPartly sunny.7 mph51%30.18 "HgN/A
4:20 PM59 °FBroken clouds.8 mph51%30.18 "HgN/A
3:20 PM57 °FBroken clouds.12 mph55%30.18 "HgN/A
2:20 PM57 °FBroken clouds.12 mph51%30.18 "HgN/A
1:20 PM57 °FBroken clouds.8 mph55%30.21 "HgN/A
12:20 PM55 °FBroken clouds.12 mph63%30.21 "HgN/A
11:20 AM55 °FBroken clouds.12 mph63%30.21 "HgN/A
10:20 AM54 °FBroken clouds.10 mph72%30.21 "HgN/A
9:20 AM52 °FBroken clouds.9 mph77%30.21 "HgN/A
8:20 AM50 °FPartly sunny.10 mph76%30.21 "HgN/A
7:20 AM48 °FPartly sunny.8 mph76%30.21 "HgN/A
6:20 AM48 °FPartly sunny.7 mph82%30.21 "HgN/A
5:20 AM46 °FPassing clouds.5 mph87%30.21 "HgN/A
4:20 AM46 °FPassing clouds.6 mph82%30.21 "HgN/A
3:20 AM45 °FPassing clouds.7 mph87%30.21 "HgN/A
2:20 AM43 °FPassing clouds.7 mph87%30.21 "HgN/A
1:20 AM46 °FPassing clouds.5 mph82%30.18 "HgN/A
12:20 AM45 °FPassing clouds.6 mph81%30.18 "HgN/A
11:20 PM
Tue, May 26
48 °FPassing clouds.5 mph71%30.18 "HgN/A
10:20 PM50 °FPartly sunny.6 mph71%30.18 "HgN/A
9:20 PM52 °FBroken clouds.5 mph67%30.15 "HgN/A
8:20 PM54 °FPartly sunny.8 mph63%30.15 "HgN/A
7:20 PM55 °FPartly sunny.6 mph59%30.12 "HgN/A
6:20 PM55 °FBroken clouds.9 mph59%30.12 "HgN/A
Weather by CustomWeather, © 2015

See weather overviewHow to use our weather pages